Jackhorn, KY (41825)

5:06 PM EST on February 10, 2016 (GMT -0500)
Ramey Flats | | Change Station
CLOSE
Current Station
Personal Weather Station
Location: Clintwood, VA
Elevation: 1795 ft
Nearby Weather Stations
Active Advisory: Winter Weather Advisory Active Notice: Record Report, Local Storm Report

Elev 1795 ft 37.21 °N, 82.44 °W | Updated 3 minutes ago

Overcast
Overcast
17.7 °F
Feels Like 18 °F
N
0.0
Wind Variable Wind from West
Gusts 7.0 mph

Today
High -- | Low -- °F
--% Chance of Precip.
Yesterday
High -- | Low -- °F
Precip. -- in
Pressure 29.90 in
Visibility 10.0 miles
Clouds Overcast 2500 ft
Windchill 18 °F
Dew Point 11 °F
Humidity 74%
Rainfall 0.00 in
Snow Depth Not available.
7:25 AM 6:04 PM
Waxing Crescent, 7% visible
METAR KLNP 102155Z AUTO 26011G17KT 10SM OVC025 M08/M16 A2990 RMK AO2
Pressure 29.90 in
Visibility 10.0 miles
Clouds Overcast 2500 ft
Windchill 18 °F
Dew Point 11 °F
Humidity 74%
Rainfall 0.00 in
Snow Depth Not available.
7:25 AM 6:04 PM
Waxing Crescent, 7% visible
METAR KLNP 102155Z AUTO 26011G17KT 10SM OVC025 M08/M16 A2990 RMK AO2

10-Day Weather Forecast

Almanac

Astronomy

Feb. 10, 2016 Rise Set
Actual Time
Civil Twilight
Nautical Twilight
Astronomical Twilight
Moon
Length of Visible Light
Length of Day
Tomorrow will be .
, % of the Moon is Illuminated

Today's Extremes

State Highs State Lows

Community

WunderPhotos

Upload Photos

1,891,959 photos uploaded!

WunderBlog® & News

Nearby

Air Quality

  Air Quality AQ Index Pollutant
Not available.

Snow Depth

Station Depth Elevation

Earthquake Activity

City Distance Mag. Time & Date
Minimum magnitude displayed is 2.5.

Coastal Water Temperatures

Place Temperature

Stations

Nearby Weather Stations

Station Location Temp. Windchill Dew Point Humidity Wind Precip. Elev Updated Type
                   

Watches & Warnings

Winter Weather Advisory
Issued: 1:20 PM EST Feb. 10, 2016 – National Weather Service

... Winter Weather Advisory in effect until 6 PM EST this
evening...

The National Weather Service in Jackson has issued a Winter
Weather Advisory for snow... which is in effect until 6 PM EST
this evening.

* Scattered snow showers will continue this afternoon... gradually
diminishing towards evening. Most of the snow showers will be
light... however there will be a few embedded moderate to heavy
snow showers at times through 6 PM.

* Most locations will see between a dusting and a quarter of an
inch of snowfall... however for elevations above 2500 feet... up
to a half inch could fall.

* Roads could become snow covered quickly within any heavier
snow showers. Additionally... visibilities will be greatly
reduced within the more intense snow showers.

Precautionary/preparedness actions...

A Winter Weather Advisory for snow means that periods of snow
will cause primarily travel difficulties. Be prepared for snow
covered roads and limited visibilities... and use caution while
driving.